EW9717 Weather Reports


time (UTC)temp
C
wind
direction
speed
KPH
gust
KPH
rain 1hr
cm
rain 24hr
cm
rain mn
cm
humidity
%
barometer
mb
20260505171215 15 0 12.9 22.5 0.00 0.00 0.00 45 1008.2
20260505170710 16 0 12.9 22.5 0.00 0.00 0.00 45 1008.2
20260505170208 16 0 12.9 22.5 0.00 0.00 0.00 45 1008.3
20260505165709 16 0 11.3 20.9 0.00 0.00 0.00 45 1008.2
20260505165210 15 0 12.9 24.1 0.00 0.00 0.00 46 1008.2
20260505164652 15 0 12.9 24.1 0.00 0.00 0.00 45 1008.1
20260505164150 15 0 11.3 24.1 0.00 0.00 0.00 45 1008.1
20260505163647 15 0 12.9 24.1 0.00 0.00 0.00 45 1008.1
20260505163148 15 0 12.9 20.9 0.00 0.00 0.00 44 1008.1
20260505162917 15 0 12.9 20.9 0.00 0.00 0.00 44 1007.9
20260505162141 15 0 12.9 20.9 0.00 0.00 0.00 44 1008.1
20260505161639 15 0 11.3 19.3 0.00 0.00 0.00 44 1008.4
20260505161136 15 0 11.3 17.7 0.00 0.00 0.00 45 1008.4
20260505160635 15 0 12.9 19.3 0.00 0.00 0.00 45 1008.4
20260505160133 15 0 11.3 25.7 0.00 0.00 0.00 45 1008.6
20260505153128 14 0 14.5 24.1 0.00 0.00 0.00 47 1007.7
20260505152623 13 0 16.1 27.4 0.00 0.00 0.00 47 1007.4
20260505152120 13 0 14.5 27.4 0.00 0.00 0.00 47 1007.5
20260505151849 13 0 14.5 25.7 0.00 0.00 0.00 48 1007.4
20260505151731 13 0 16.1 29.0 0.00 0.00 0.00 49 1007.4
20260505150619 13 0 16.1 30.6 0.00 0.00 0.00 48 1007.4
20260505150118 13 0 14.5 30.6 0.00 0.00 0.00 49 1007.3
20260505140600 12 0 12.9 22.5 0.00 0.00 0.00 52 1007.5
20260505130306 12 0 11.3 17.7 0.00 0.00 0.00 56 1006.2
20260505124510 12 0 9.7 20.9 0.00 0.00 0.00 56 1005.8
20260505124012 12 0 11.3 22.5 0.00 0.00 0.00 56 1005.5
20260505124008 12 0 9.7 17.7 0.00 0.00 0.00 56 1005.7
20260505123008 12 0 11.3 22.5 0.00 0.00 0.00 56 1005.6
20260505122507 12 0 11.3 20.9 0.00 0.00 0.00 57 1005.3
20260505121959 12 0 11.3 22.5 0.00 0.00 0.00 57 1005.2
20260505121457 12 0 12.9 22.5 0.00 0.00 0.00 57 1005.1
20260505121226 12 0 14.5 22.5 0.00 0.00 0.00 57 1004.8
20260505120446 13 0 16.1 25.7 0.00 0.00 0.00 57 1005.0
20260505120216 13 0 16.1 25.7 0.00 0.00 0.00 56 1004.9
20260505115444 13 0 12.9 24.1 0.00 0.00 0.00 57 1005.2
20260505114946 13 0 11.3 22.5 0.00 0.00 0.00 58 1004.8
20260505114445 13 0 9.7 17.7 0.00 0.00 0.00 58 1004.8
20260505113936 13 0 11.3 19.3 0.00 0.00 0.00 58 1004.9
20260505113436 13 0 12.9 29.0 0.00 0.00 0.00 57 1004.9
20260505112935 13 0 14.5 29.0 0.00 0.00 0.00 57 1004.8
20260505112434 14 0 14.5 25.7 0.00 0.00 0.00 56 1004.4
20260505111934 14 0 14.5 25.7 0.00 0.00 0.00 55 1004.6
20260505111431 15 0 16.1 27.4 0.00 0.00 0.00 54 1004.7
20260505110929 15 0 16.1 30.6 0.00 0.00 0.00 53 1004.4
20260505110429 15 0 16.1 35.4 0.00 0.00 0.00 51 1004.5
20260505101920 19 0 14.5 30.6 0.00 0.00 0.00 28 1004.1
20260505101421 19 0 12.9 25.7 0.00 0.00 0.00 27 1004.2
20260505100920 20 0 9.7 19.3 0.00 0.00 0.00 27 1003.9
20260505100420 20 0 11.3 24.1 0.00 0.00 0.00 27 1003.7
20260505095921 20 0 16.1 27.4 0.00 0.00 0.00 27 1003.6
20260505095415 20 0 16.1 35.4 0.00 0.00 0.00 27 1003.4
20260505094917 19 0 12.9 35.4 0.00 0.00 0.00 27 1003.1
20260505094414 20 0 12.9 20.9 0.00 0.00 0.00 27 1002.7
20260505093910 20 0 14.5 22.5 0.00 0.00 0.00 26 1002.4
20260505093638 20 0 12.9 22.5 0.00 0.00 0.00 26 1002.4
20260505092909 20 0 14.5 29.0 0.00 0.00 0.00 26 1002.1
20260505092401 20 0 16.1 29.0 0.00 0.00 0.00 26 1002.1
20260505092133 20 0 14.5 27.4 0.00 0.00 0.00 26 1002.1
20260505091358 20 0 12.9 22.5 0.00 0.00 0.00 26 1002.3
20260505090854 20 0 12.9 20.9 0.00 0.00 0.00 26 1002.3
20260505090354 20 0 11.3 20.9 0.00 0.00 0.00 26 1002.3
20260505085850 20 0 11.3 24.1 0.00 0.00 0.00 25 1002.4
20260505085348 20 0 11.3 24.1 0.00 0.00 0.00 25 1002.3
20260505084849 20 0 9.7 20.9 0.00 0.00 0.00 25 1002.3
20260505084339 20 0 11.3 20.9 0.00 0.00 0.00 25 1002.3
20260505083837 20 0 11.3 20.9 0.00 0.00 0.00 25 1002.2
20260505083332 20 0 11.3 20.9 0.00 0.00 0.00 24 1002.2
20260505082833 20 0 11.3 20.9 0.00 0.00 0.00 24 1002.2
20260505082332 20 0 11.3 19.3 0.00 0.00 0.00 24 1002.1
20260505081833 21 0 9.7 19.3 0.00 0.00 0.00 24 1002.1
20260505081333 21 0 12.9 22.5 0.00 0.00 0.00 24 1002.1
20260505081105 21 0 14.5 22.5 0.00 0.00 0.00 23 1002.1
20260505080332 21 0 12.9 20.9 0.00 0.00 0.00 23 1002.1
20260505075827 21 0 11.3 19.3 0.00 0.00 0.00 23 1002.2
20260505075325 21 0 11.3 19.3 0.00 0.00 0.00 23 1002.3
20260505074821 21 0 11.3 19.3 0.00 0.00 0.00 23 1002.4
20260505074320 21 0 11.3 17.7 0.00 0.00 0.00 23 1002.5
20260505073818 21 0 11.3 19.3 0.00 0.00 0.00 23 1002.5
20260505073316 21 0 11.3 19.3 0.00 0.00 0.00 23 1002.6
20260505072812 21 0 11.3 19.3 0.00 0.00 0.00 23 1002.6
20260505072310 21 0 11.3 20.9 0.00 0.00 0.00 23 1002.5
20260505071759 21 0 9.7 20.9 0.00 0.00 0.00 23 1002.6
20260505071257 21 0 9.7 17.7 0.00 0.00 0.00 23 1002.6
20260505070754 21 0 9.7 17.7 0.00 0.00 0.00 23 1002.5
20260505070252 21 0 8.0 14.5 0.00 0.00 0.00 23 1002.5
20260505065754 21 0 9.7 17.7 0.00 0.00 0.00 23 1002.5
20260505065749 21 0 8.0 17.7 0.00 0.00 0.00 23 1002.5
20260505065359 22 0 11.3 17.7 0.00 0.00 0.00 23 1002.5
20260505064240 22 0 9.7 19.3 0.00 0.00 0.00 23 1002.7
20260505063742 22 0 11.3 19.3 0.00 0.00 0.00 22 1002.7
20260505063240 22 0 11.3 19.3 0.00 0.00 0.00 22 1002.6
20260505062737 22 0 11.3 22.5 0.00 0.00 0.00 22 1002.6
20260505062508 22 0 11.3 22.5 0.00 0.00 0.00 22 1002.7
20260505061737 22 0 12.9 20.9 0.00 0.00 0.00 22 1002.7
20260505061234 22 0 12.9 20.9 0.00 0.00 0.00 22 1002.7
20260505061008 22 0 12.9 27.4 0.00 0.00 0.00 22 1002.8
20260505060235 22 0 14.5 27.4 0.00 0.00 0.00 22 1002.7
20260505055736 22 0 14.5 25.7 0.00 0.00 0.00 22 1002.6
20260505055234 22 0 14.5 25.7 0.00 0.00 0.00 22 1002.7
20260505054733 22 0 14.5 25.7 0.00 0.00 0.00 22 1002.6
20260505054504 22 0 12.9 25.7 0.00 0.00 0.00 22 1002.7
20260505053733 22 0 14.5 25.7 0.00 0.00 0.00 22 1002.7
20260505053233 22 0 14.5 24.1 0.00 0.00 0.00 22 1002.8
20260505052732 22 0 12.9 20.9 0.00 0.00 0.00 22 1002.9
20260505052230 22 0 12.9 22.5 0.00 0.00 0.00 22 1002.9
20260505051724 22 0 14.5 25.7 0.00 0.00 0.00 22 1003.0
20260505051225 22 0 14.5 27.4 0.00 0.00 0.00 22 1003.0
20260505050724 22 0 14.5 29.0 0.00 0.00 0.00 22 1003.0
20260505050225 22 0 14.5 29.0 0.00 0.00 0.00 22 1003.1
20260505041721 22 0 16.1 27.4 0.00 0.00 0.00 23 1003.0
20260505041219 22 0 16.1 27.4 0.00 0.00 0.00 23 1003.0
20260505040717 22 0 17.7 27.4 0.00 0.00 0.00 23 1003.0
20260505040218 22 0 17.7 32.2 0.00 0.00 0.00 23 1003.1
20260505035717 22 0 14.5 32.2 0.00 0.00 0.00 24 1003.0
20260505035217 22 0 12.9 27.4 0.00 0.00 0.00 24 1003.0
20260505034715 22 0 12.9 27.4 0.00 0.00 0.00 24 1003.0
20260505034212 22 0 12.9 22.5 0.00 0.00 0.00 24 1002.9
20260505033712 22 0 12.9 20.9 0.00 0.00 0.00 23 1003.0
20260505033209 22 0 12.9 24.1 0.00 0.00 0.00 23 1003.1
20260505032705 22 0 12.9 24.1 0.00 0.00 0.00 23 1003.1
20260505032203 22 0 14.5 25.7 0.00 0.00 0.00 23 1002.9
20260505031707 23 0 14.5 24.1 0.00 0.00 0.00 22 1002.8
20260505031701 23 0 14.5 25.7 0.00 0.00 0.00 23 1002.9
20260505030659 23 0 14.5 25.7 0.00 0.00 0.00 22 1003.0
20260505030430 23 0 14.5 25.7 0.00 0.00 0.00 22 1002.8
20260505025659 23 0 14.5 24.1 0.00 0.00 0.00 22 1002.9
20260505025200 23 0 12.9 24.1 0.00 0.00 0.00 22 1002.9
20260505024655 23 0 12.9 20.9 0.00 0.00 0.00 22 1002.8
20260505024155 23 0 12.9 20.9 0.00 0.00 0.00 22 1002.7
20260505023650 23 0 11.3 20.9 0.00 0.00 0.00 22 1002.7
20260505023150 23 0 11.3 19.3 0.00 0.00 0.00 21 1002.6
20260505022650 24 0 9.7 19.3 0.00 0.00 0.00 21 1002.6
20260505022146 24 0 9.7 30.6 0.00 0.00 0.00 20 1002.6
20260505021645 24 0 11.3 30.6 0.00 0.00 0.00 20 1002.7
20260505021139 25 0 12.9 20.9 0.00 0.00 0.00 20 1002.7
20260505020636 25 0 12.9 24.1 0.00 0.00 0.00 19 1002.6
20260505020136 25 0 14.5 24.1 0.00 0.00 0.00 18 1002.6
20260505015630 25 0 14.5 24.1 0.00 0.00 0.00 16 1002.6
20260505015131 25 0 14.5 22.5 0.00 0.00 0.00 14 1002.7
20260505014631 25 0 12.9 24.1 0.00 0.00 0.00 13 1002.6
20260505014131 26 0 14.5 24.1 0.00 0.00 0.00 13 1002.5
20260505013632 26 0 16.1 27.4 0.00 0.00 0.00 13 1002.4
20260505013359 26 0 16.1 29.0 0.00 0.00 0.00 13 1002.4
20260505012633 26 0 17.7 33.8 0.00 0.00 0.00 13 1002.2
20260505012629 26 0 17.7 30.6 0.00 0.00 0.00 13 1002.2
20260505011859 26 0 14.5 33.8 0.00 0.00 0.00 13 1002.2
20260505011130 26 0 16.1 29.0 0.00 0.00 0.00 13 1002.1
20260505010629 26 0 16.1 29.0 0.00 0.00 0.00 12 1002.2
20260505010129 26 0 16.1 25.7 0.00 0.00 0.00 12 1002.2
20260505005628 27 0 17.7 30.6 0.00 0.00 0.00 12 1002.4
20260505005127 27 0 19.3 30.6 0.00 0.00 0.00 11 1002.4
20260505004627 27 0 20.9 37.0 0.00 0.00 0.00 11 1002.4
20260505004119 27 0 20.9 37.0 0.00 0.00 0.00 11 1002.5
20260505003618 27 0 19.3 43.5 0.00 0.00 0.00 11 1002.5
20260505003116 27 0 20.9 43.5 0.00 0.00 0.00 11 1002.3
20260505002612 27 0 20.9 40.2 0.00 0.00 0.00 11 1002.5
20260505002112 27 0 19.3 35.4 0.00 0.00 0.00 11 1002.6
20260505001608 27 0 19.3 35.4 0.00 0.00 0.00 11 1002.5
20260505001106 27 0 17.7 33.8 0.00 0.00 0.00 11 1002.5
20260505000603 27 0 17.7 35.4 0.00 0.00 0.00 11 1002.5
20260504235603 28 0 22.5 40.2 0.00 0.00 0.00 11 1002.4
20260504235103 28 0 22.5 38.6 0.00 0.00 0.00 11 1002.4
20260504234601 28 0 22.5 37.0 0.00 0.00 0.00 11 1002.3
20260504234058 28 0 22.5 43.5 0.00 0.00 0.00 11 1002.3
20260504233557 28 0 19.3 43.5 0.00 0.00 0.00 11 1002.4
20260504233057 28 0 19.3 38.6 0.00 0.00 0.00 12 1002.4
20260504232831 28 0 22.5 37.0 0.00 0.00 0.00 11 1002.4
20260504232556 28 0 22.5 38.6 0.00 0.00 0.00 11 1002.5
20260504231556 28 0 20.9 37.0 0.00 0.00 0.00 11 1002.4
20260504231052 28 0 22.5 45.1 0.00 0.00 0.00 11 1002.4
20260504230554 28 0 22.5 45.1 0.00 0.00 0.00 10 1002.3
20260504230325 28 0 19.3 40.2 0.00 0.00 0.00 11 1002.2
20260504225552 29 0 20.9 45.1 0.00 0.00 0.00 10 1002.2
20260504225053 29 0 24.1 45.1 0.00 0.00 0.00 10 1002.1
20260504224552 29 0 22.5 45.1 0.00 0.00 0.00 10 1002.2
20260504224053 29 0 22.5 45.1 0.00 0.00 0.00 11 1002.2
20260504223825 29 0 22.5 37.0 0.00 0.00 0.00 11 1002.2
20260504223052 29 0 19.3 40.2 0.00 0.00 0.00 14 1002.0
20260504222552 29 0 17.7 40.2 0.00 0.00 0.00 16 1002.1
20260504222053 29 0 19.3 33.8 0.00 0.00 0.00 17 1002.4
20260504221551 29 0 17.7 33.8 0.00 0.00 0.00 14 1002.1
20260504221049 29 0 19.3 41.8 0.00 0.00 0.00 15 1002.7
20260504220546 30 0 20.9 41.8 0.00 0.00 0.00 17 1002.9
20260504220045 29 0 16.1 29.0 0.00 0.00 0.00 16 1002.6
20260504215532 29 0 16.1 27.4 0.00 0.00 0.00 18 1002.7
20260504215033 29 0 14.5 27.4 0.00 0.00 0.00 18 1002.7
20260504214803 29 0 14.5 29.0 0.00 0.00 0.00 19 1003.0
20260504214033 29 0 17.7 35.4 0.00 0.00 0.00 19 1003.0
20260504213537 29 0 20.9 38.6 0.00 0.00 0.00 20 1003.4
20260504213532 29 0 20.9 35.4 0.00 0.00 0.00 19 1003.3
20260504212533 29 0 16.1 38.6 0.00 0.00 0.00 20 1003.6
20260504212305 29 0 16.1 30.6 0.00 0.00 0.00 20 1003.5
20260504211530 29 0 14.5 30.6 0.00 0.00 0.00 20 1003.7
20260504211031 28 0 14.5 27.4 0.00 0.00 0.00 19 1003.8
20260504210532 28 0 17.7 37.0 0.00 0.00 0.00 18 1003.8
20260504210259 29 0 19.3 37.0 0.00 0.00 0.00 18 1004.1
20260504205526 29 0 14.5 35.4 0.00 0.00 0.00 17 1003.9
20260504205522 29 0 16.1 35.4 0.00 0.00 0.00 18 1003.9
20260504204516 29 0 16.1 37.0 0.00 0.00 0.00 17 1004.2
20260504204245 29 0 16.1 37.0 0.00 0.00 0.00 17 1004.3
20260504203741 30 0 17.7 30.6 0.00 0.00 0.00 17 1004.2
20260504203010 30 0 14.5 30.6 0.00 0.00 0.00 17 1004.4
20260504202511 30 0 19.3 43.5 0.00 0.00 0.00 18 1004.3
20260504202507 30 0 14.5 33.8 0.00 0.00 0.00 16 1004.3
20260504201734 30 0 20.9 43.5 0.00 0.00 0.00 18 1004.5
20260504201001 30 0 19.3 30.6 0.00 0.00 0.00 17 1004.5
20260504200458 30 0 19.3 32.2 0.00 0.00 0.00 17 1004.6
20260504195958 30 0 20.9 32.2 0.00 0.00 0.00 18 1004.5
20260504195458 30 0 19.3 32.2 0.00 0.00 0.00 18 1004.6
20260504194958 30 0 14.5 30.6 0.00 0.00 0.00 18 1004.7
20260504194458 29 0 12.9 29.0 0.00 0.00 0.00 19 1004.6
20260504194223 29 0 14.5 29.0 0.00 0.00 0.00 20 1004.8
20260504193452 30 0 17.7 33.8 0.00 0.00 0.00 20 1004.9
20260504192952 29 0 17.7 33.8 0.00 0.00 0.00 20 1005.1
20260504192447 29 0 14.5 27.4 0.00 0.00 0.00 21 1005.1
20260504192215 29 0 14.5 27.4 0.00 0.00 0.00 21 1005.3
20260504191443 29 0 14.5 30.6 0.00 0.00 0.00 21 1005.3
20260504190941 28 0 16.1 30.6 0.00 0.00 0.00 22 1005.4
20260504190442 28 0 17.7 30.6 0.00 0.00 0.00 22 1005.4
20260504185939 28 0 16.1 30.6 0.00 0.00 0.00 22 1005.5
20260504185709 28 0 17.7 37.0 0.00 0.00 0.00 24 1005.5
20260504184937 28 0 17.7 37.0 0.00 0.00 0.00 24 1005.6
20260504184705 28 0 16.1 30.6 0.00 0.00 0.00 24 1005.6
20260504183935 28 0 14.5 30.6 0.00 0.00 0.00 25 1005.8
20260504183435 28 0 14.5 29.0 0.00 0.00 0.00 24 1005.9
20260504182933 27 0 14.5 27.4 0.00 0.00 0.00 25 1005.9
20260504182433 27 0 14.5 27.4 0.00 0.00 0.00 26 1006.0
20260504181932 27 0 17.7 30.6 0.00 0.00 0.00 26 1006.3
20260504181433 27 0 19.3 30.6 0.00 0.00 0.00 26 1006.5
20260504180936 27 0 14.5 30.6 0.00 0.00 0.00 26 1006.7
20260504180932 27 0 16.1 30.6 0.00 0.00 0.00 26 1006.5
20260504175933 27 0 16.1 27.4 0.00 0.00 0.00 27 1006.7
20260504175437 27 0 17.7 27.4 0.00 0.00 0.00 27 1007.1
20260504175433 27 0 17.7 27.4 0.00 0.00 0.00 27 1006.9
20260504174432 26 0 17.7 29.0 0.00 0.00 0.00 28 1007.3
20260504173934 26 0 19.3 33.8 0.00 0.00 0.00 27 1007.3
20260504173433 26 0 19.3 33.8 0.00 0.00 0.00 27 1007.3
20260504172932 26 0 17.7 30.6 0.00 0.00 0.00 28 1007.3
20260504172432 26 0 17.7 30.6 0.00 0.00 0.00 29 1007.4
20260504171932 26 0 17.7 32.2 0.00 0.00 0.00 28 1007.3